Location: Golden Pond Observatory
(36.7773°N, 88.0631°W)
Time: 18:51:40
(UTC-05:00)

Envisat - Visible Passes

Search period start: 22 October 2019 00:00
Search period end: 01 November 2019 00:00
Orbit: 764 x 766 km, 98.1° (Epoch: 22 October)

Date Brightness Start Highest point End Pass type
(mag) Time Alt. Az. Time Alt. Az. Time Alt. Az.
22 Oct 4.4 19:35:21 10° SSW 19:40:05 40° W 19:44:52 10° NNW visible
23 Oct 3.0 18:58:12 10° SSE 19:03:17 86° ENE 19:08:23 10° NNW visible
24 Oct 5.4 20:01:50 10° SW 20:05:44 22° W 20:09:40 10° NW visible
25 Oct 6.2 06:34:30 10° ENE 06:37:27 15° E 06:40:22 10° SE visible
25 Oct 3.9 19:23:52 10° S 19:28:47 52° W 19:33:45 10° NNW visible
26 Oct 2.9 18:47:01 10° SSE 18:52:02 68° ENE 18:57:05 10° N visible
26 Oct 6.2 20:29:38 10° WSW 20:31:28 12° W 20:33:20 10° WNW visible
27 Oct 5.0 19:50:04 10° SSW 19:54:24 28° W 19:58:46 10° NW visible
28 Oct 6.5 06:24:20 10° ENE 06:26:04 12° E 06:27:47 10° ESE visible
28 Oct 3.4 19:12:29 10° S 19:17:30 67° WSW 19:22:34 10° NNW visible
29 Oct 3.1 18:35:54 10° SSE 18:40:49 52° ENE 18:45:45 10° N visible
29 Oct 5.9 20:17:07 10° SW 20:20:06 16° W 20:23:06 10° NW visible
30 Oct 4.6 19:38:26 10° SSW 19:43:05 36° W 19:47:45 10° NNW visible
31 Oct 3.0 19:01:10 10° SSE 19:06:15 86° WSW 19:11:21 10° NNW visible
